CZ-4 DEB, 35322

Orbit data source: Space-Track

CZ-4 DEB, 35322 is space debris in SSO originally from a launch on Thu, 14 Oct 1999 UTC launched from the Taiyaun Space Center, China (TSC). Debris objects in space refer to the collection of defunct objects orbiting the Earth. Examples of debris include non-operational satellites, rocket bodies, and fragments generated from explosions, collisions, or faulty payload assembly.

Loading next visibility...
Identifier
35322, 1999-057SA
Orbit
SSO
Country
Flag of CNCN / PRC
Related business
Manufacturer
Unknown
Mission
Spacecraft
Bus & Motor
Unknown
Mass
Unknown
Launch date (UTC)
1999-10-14 (26 years ago)
Launch vehicle
Unknown
Launch site
Taiyaun Space Center, China (TSC)
Object type
Payload
Rocket body
Debris
Shape & HBR
Unknown shape, 0.1 m
Radar Cross Section
Small (<0.1 m²)

Expand to show TLE details & history
Last TLE update: 2 days ago

TLE from 2 days ago
0 CZ-4 DEB
1 35322U 99057SA  25349.33738613  .00000626  00000-0  29321-3 0  9996
2 35322  99.1094  29.4257 0195838 251.7928 106.1839 14.14385296645181
Epoch: 2025-12-15T08:05Z
TLE epoch observation values (Epoch: 2025-12-15T08:05:50.161Z)
Latitude
-0.00009°
Longitude
-176.27069°
Altitude
889.264 km
Speed
7.386 km/s
True Right ascension
01h 57m 42s
True Declination
0° 00' 00"
Sunlit
Object was in full shadow at epoch
Visualization orbit readout
Latitude
Unknown
Longitude
Unknown
Altitude
Unknown
Speed
Unknown
Apparent Right ascension
Unknown
Apparent Declination
Unknown
Sunlit
N/A
Visualization observer readout
Local Sidereal Time
21:36:31
Azimuth
Unknown
Elevation
Unknown
Doppler factor
Unknown
Orbital elements
Apogee altitude
982.978 km
Perigee altitude
700.198 km
Semi-major axis
7,219.725 km
Eccentricity
0.01958
Inclination
99.1094°
RAAN
29.4257°
Arg. of periapsis
251.7928°
True anomaly
108.324°
Mean anomaly
106.1839°
Eccentric anomaly
107.25547°
Mean motion
3.53804 °/min
Orbital period
101.75 mins
BSTAR
0.00029321
Loading maneuver chart data...
Computing Atmospheric mass density...
Loading historical data...
Loading historical data...
Loading historical data...
Loading historical data...
Loading historical data...
Loading historical data...
Loading historical data...

Documentation

Showing up to 5 results
|